Temp
9 8 9 9 8 8 8 8 7 7 8 8 8 8 8 8 8 8 8 8 8 9 9 9 9 9 9 9 8 14 14 15 13 12 12 12 13 13 12 11 13 12 14 14 15 15 15
8 8 8 8 8 7 7 7 7 7 7 8 8 8 8 7 8 8 8 8 9 9 10 10 9 9 9 7 12 12 13 13 14 12 12 12 13 13 12 12 13 13 13 14 14 14 14
8 8 8 7 7 7 7 7 7 7 7 7 7 7 7 7 7 7 7 9 10 9 10 10 9 9 10 8 12 12 13 13 13 12 12 14 13 13 12 13 12 13 13 13 12 13 13
8 8 7 7 7 7 7 7 7 7 7 7 7 7 7 7 7 7 8 11 12 10 10 10 9 9 9 11 12 12 13 13 13 12 14 13 13 12 12 13 13 12 12 11 13 13 14
8 8 7 7 7 7 7 7 7 7 7 7 7 7 7 6 6 6 7 10 12 10 10 10 9 9 9 11 11 13 13 13 13 12 13 13 13 13 12 12 12 11 10 10 13 13 13
7 7 7 7 7 7 7 7 7 7 7 7 7 6 6 6 6 6 7 10 10 10 10 10 10 9 9 11 12 13 13 13 12 11 12 12 12 10 12 12 12 11 10 10 12 13 12
7 7 7 7 7 7 7 7 7 7 7 7 7 6 6 6 5 6 7 9 5 7 7 8 8 8 9 11 12 12 13 12 11 11 10 10 11 10 12 12 12 12 10 10 11 14 13
7 7 6 6 6 7 7 7 7 7 7 7 6 5 5 5 5 6 6 5 6 6 3 5 6 7 8 9 8 11 12 11 10 9 8 8 8 10 10 10 11 12 10 9 11 12 13
6 6 6 6 7 7 7 7 7 7 7 6 6 5 5 5 5 7 5 6 6 5 5 7 7 7 8 7 8 8 10 10 9 8 7 7 10 9 10 9 9 9 10 10 10 12 12
6 6 6 7 7 7 7 6 6 6 6 6 5 6 5 5 6 5 6 6 6 5 6 7 8 10 9 8 8 10 10 10 9 8 7 8 9 9 8 9 9 9 9 10 9 10 9
6 6 7 6 6 6 6 6 6 6 6 6 5 6 5 5 4 4 6 6 6 5 5 10 10 11 10 10 10 10 10 11 9 9 8 9 9 8 9 9 10 9 10 10 10 10 10
6 7 6 6 6 6 6 6 5 5 5 5 5 7 5 4 4 6 5 6 6 7 4 8 9 9 9 9 9 9 10 10 10 9 9 8 9 9 9 9 9 9 9 9 7 7 8
6 6 6 6 6 6 6 5 5 5 5 5 6 5 5 5 4 5 6 5 5 6 7 6 7 8 8 6 6 6 8 8 8 8 7 9 9 8 9 9 9 9 9 8 7 7 7
6 6 6 6 5 5 5 5 5 5 5 5 6 5 6 6 6 5 5 4 4 6 5 6 6 6 5 5 6 7 6 6 6 6 6 8 8 8 8 9 9 7 9 7 4 5 5
6 6 6 5 5 5 5 4 5 5 4 4 5 5 7 6 5 4 2 3 4 4 4 4 5 5 6 6 4 5 5 4 4 4 6 6 7 6 6 7 7 7 7 6 3 2 4
6 6 5 5 5 4 5 5 5 5 4 4 4 3 5 6 6 5 4 5 4 4 5 5 4 5 4 4 5 4 3 3 4 4 4 3 4 4 6 7 6 7 7 7 7 8 8
6 5 5 5 4 4 4 4 4 4 4 4 3 0 6 7 6 1 2 1 4 6 5 4 4 4 4 3 3 2 3 3 3 3 3 0 2 3 6 5 5 6 4 5 5 6 7
5 4 4 4 4 4 4 4 4 4 4 4 2 1 6 6 3 -0 1 2 5 4 4 4 3 3 3 3 1 3 3 1 3 3 2 2 1 1 4 4 4 4 4 3 5 4 4
4 4 4 4 4 4 4 4 4 4 4 2 1 -0 5 5 1 2 2 3 4 4 4 3 3 3 3 2 2 2 2 3 3 3 1 1 1 -0 4 4 4 3 3 3 2 3 4
4 4 4 4 4 4 4 4 4 4 3 3 2 2 1 -1 0 1 2 2 3 4 3 3 2 3 3 2 3 2 3 3 3 3 5 2 -3 -0 -0 2 3 2 3 3 1 2 3
3 3 4 4 4 4 4 4 4 4 4 3 1 1 1 0 2 1 1 2 2 2 2 2 2 3 2 2 1 1 2 1 2 1 -1 -2 -2 -0 2 2 3 3 3 2 2 1 2
4 4 4 4 4 4 4 4 4 3 4 2 1 2 1 1 -0 -1 1 1 2 2 1 1 1 2 1 2 2 1 0 -1 -1 -3 -3 -3 -2 0 -2 2 2 2 3 3 3 3 0
4 4 4 4 4 4 4 4 4 3 3 3 2 1 1 -0 -1 -1 1 0 1 1 2 2 1 0 0 1 1 1 0 -0 -1 -1 -2 -3 -3 -4 -4 1 0 -1 -0 2 2 3 2
3 3 3 4 3 3 4 4 3 3 3 3 3 1 1 -1 -3 1 -1 -0 1 1 0 -0 -1 -3 -0 -2 -1 -1 -1 -1 -0 1 1 -5 -1 -2 -4 -1 -4 1 2 2 1 1 1
3 3 3 4 4 3 3 3 3 3 3 3 2 2 1 -2 -1 -1 -0 -2 -3 -4 -1 -0 -0 -1 -3 -3 -3 -4 -2 1 -0 0 -1 0 0 0 -2 -3 1 1 1 1 1 1 -1
3 3 3 3 3 3 3 3 3 3 3 2 2 2 1 1 -0 -1 -3 -4 -1 -5 -3 -1 -3 -3 -4 -3 -4 -4 -2 -0 0 0 0 1 -0 -1 -2 -3 1 1 1 1 -0 1 -1
3 3 3 3 3 3 3 3 3 3 3 2 2 1 1 1 -0 0 -1 -0 -2 -3 -5 -3 -0 -2 -5 -5 -3 -2 -2 -2 -1 -0 1 0 -1 -1 1 -1 0 0 -0 -0 1 -0 -0
2 3 3 3 3 3 3 3 3 2 2 2 2 1 1 -2 -2 0 1 -3 -4 -2 -2 -3 -5 -5 -5 -4 -5 -5 -5 -4 -4 -1 -0 -0 -0 -1 -3 -3 -0 -1 1 -0 -2 -2 -2
2 2 3 2 2 2 2 2 2 2 2 2 1 0 -0 0 -2 0 -1 -1 -2 -2 -2 -2 -2 -2 -2 -2 -7 -7 -5 -8 -5 -4 -0 -1 -1 -1 -2 -0 -1 -2 -2 -3 -5 -6 -4
Height
852 848 845 842 838 834 829 824 819 814 809 804 798 792 786 780 773 766 759 753 746 741 737 734 734 736 739 738 720 707 708 708 711 715 715 719 727 734 740 741 740 742 738 736 736 739 740
852 849 846 843 838 834 829 823 818 814 809 803 797 791 784 778 771 762 755 748 741 736 730 727 728 731 734 736 707 706 705 705 704 710 717 721 719 722 729 731 731 730 733 734 736 738 739
854 851 847 842 838 833 828 823 819 814 808 802 796 790 783 776 769 762 752 742 736 731 727 724 726 727 727 714 704 704 704 703 703 704 710 714 718 721 724 726 726 726 732 732 733 735 736
855 851 847 843 838 834 829 824 819 813 807 801 795 789 782 774 765 757 748 738 731 726 724 723 723 725 717 702 702 700 701 702 702 705 709 713 717 720 722 721 724 731 734 740 726 731 731
856 851 849 843 838 834 830 825 819 813 807 801 795 787 780 772 763 754 743 733 725 722 721 721 723 724 714 702 699 696 698 699 702 705 707 709 714 716 719 723 728 729 734 734 725 722 725
856 852 849 843 840 835 829 824 818 813 807 801 794 787 777 769 760 749 738 728 719 719 720 720 719 722 706 700 697 696 697 699 700 704 708 710 714 717 713 714 705 721 733 730 725 719 723
857 852 848 844 840 834 829 824 818 812 805 799 793 784 775 765 757 747 738 726 729 725 724 719 714 707 701 697 697 695 695 698 701 705 709 711 713 706 700 702 709 715 725 726 724 713 719
857 852 848 844 840 834 829 823 817 811 804 797 790 782 774 764 754 746 742 740 747 747 730 715 703 704 699 700 702 694 695 699 702 711 714 720 715 710 710 715 716 710 721 731 723 717 719
857 853 849 844 839 834 829 823 817 810 802 795 787 779 770 762 750 746 744 744 743 740 733 704 699 698 693 696 697 695 695 697 700 711 714 715 704 703 708 716 719 721 719 724 725 719 719
857 854 849 844 839 833 827 822 815 808 801 792 785 776 768 759 751 749 746 745 742 740 731 706 696 692 693 693 693 687 690 694 700 705 711 712 701 704 713 713 715 716 717 719 726 727 738
858 854 849 843 838 832 826 820 813 806 799 790 782 773 767 761 759 755 751 744 740 741 749 696 696 694 692 693 691 690 690 690 698 699 706 700 698 705 707 703 708 710 706 713 716 724 728
858 854 848 843 838 831 825 819 813 806 798 790 780 769 765 760 757 754 748 741 739 737 745 711 706 706 703 698 695 694 693 692 694 696 699 699 697 696 698 703 701 705 710 718 731 734 732
858 853 847 842 836 831 825 818 812 805 798 789 777 770 763 759 758 752 747 743 748 739 724 730 725 715 714 720 714 710 699 701 705 705 707 696 698 699 699 702 704 705 710 723 738 739 732
857 852 847 842 836 831 825 819 812 806 798 787 775 769 763 760 757 751 746 751 754 743 747 739 732 723 727 727 722 712 713 711 714 712 711 700 702 702 702 698 698 710 706 721 758 747 746
857 852 847 842 837 831 825 818 812 805 797 787 777 768 764 761 757 749 752 762 762 763 759 751 735 733 729 726 733 723 721 730 730 726 714 708 704 710 710 707 705 710 715 720 749 759 752
856 852 847 842 836 831 825 818 812 805 797 788 780 773 766 762 756 753 755 760 764 763 755 749 747 742 743 737 735 738 737 742 734 729 724 734 729 723 712 711 713 708 715 718 718 713 716
856 851 846 841 836 831 825 819 812 806 798 789 781 782 769 764 760 765 776 778 763 756 755 755 752 750 748 749 747 749 746 745 740 738 736 747 743 732 716 723 725 720 730 725 725 725 715
855 850 846 841 836 831 826 820 813 807 799 791 790 791 773 767 776 785 783 776 762 760 758 756 758 756 752 752 759 749 745 753 745 742 745 740 749 749 732 729 729 727 727 736 725 737 739
853 850 845 841 837 831 826 820 814 809 803 796 796 794 779 775 791 786 782 774 768 764 763 761 760 757 755 756 756 754 749 746 746 746 754 750 754 765 729 733 732 738 736 736 742 741 740
853 849 845 841 836 830 825 821 815 810 804 799 800 798 790 789 793 794 786 777 772 767 769 765 765 760 759 755 751 754 748 746 745 746 739 748 772 763 768 753 745 748 745 744 752 746 747
852 848 844 840 835 830 826 821 816 811 806 804 805 806 804 804 792 797 794 784 779 778 773 770 764 763 763 755 759 754 751 754 750 753 756 764 773 762 752 751 746 746 744 748 750 757 755
852 848 844 839 834 829 825 821 817 812 808 807 811 810 807 803 802 802 794 790 782 780 781 774 773 767 765 756 755 757 759 765 766 766 768 768 775 763 773 751 748 749 744 747 748 747 761
851 847 843 839 834 829 824 821 817 813 811 810 810 810 810 807 807 806 799 797 789 787 779 776 776 773 769 766 763 760 760 761 764 766 769 776 780 789 791 757 759 770 760 746 745 745 747
851 847 843 838 833 829 825 821 817 815 813 812 810 809 809 814 816 801 805 798 791 788 787 781 781 785 772 768 761 761 762 763 763 760 761 783 770 777 794 768 797 754 747 745 749 753 751
850 846 842 838 834 830 826 822 819 816 814 812 811 811 809 818 812 806 803 802 798 795 789 784 780 778 774 772 777 783 773 759 764 761 765 761 761 761 778 783 758 751 756 756 754 755 761
849 845 841 837 834 830 826 823 820 817 814 811 812 811 810 809 810 809 810 810 802 808 796 785 780 777 777 781 787 797 785 771 766 764 759 757 761 770 777 787 759 754 756 755 757 760 763
848 844 840 837 833 830 826 823 820 817 815 813 812 811 810 809 810 808 810 806 806 804 809 796 786 783 784 794 792 790 786 782 780 772 763 762 769 769 759 771 764 760 758 756 761 772 764
845 842 839 835 831 829 827 823 820 816 815 813 813 812 811 812 811 809 808 811 811 807 805 800 800 795 795 797 804 805 803 797 793 779 771 772 771 776 785 789 771 766 756 764 776 772 771
843 840 837 834 832 829 826 823 819 817 814 813 812 812 811 811 812 809 809 809 809 808 807 801 801 795 792 792 810 810 802 812 803 800 774 777 777 777 783 772 775 776 776 777 779 781 778
Wind_Speed
19 21 22 23 24 24 26 26 27 29 30 31 32 33 35 36 38 39 39 36 32 30 27 19 13 9 4 7 10 6 10 5 14 28 28 17 17 18 11 5 3 7 2 8 12 5 4
20 21 22 22 24 25 27 28 30 31 31 32 33 35 37 39 40 43 45 41 33 31 23 14 9 9 5 8 7 4 4 3 14 31 22 14 12 11 7 7 16 6 11 13 6 5 5
20 21 22 23 24 26 28 29 30 31 33 34 35 36 41 42 40 41 46 45 34 31 17 8 8 13 10 15 5 6 8 2 11 29 16 27 8 12 8 2 6 3 3 3 5 6 6
20 21 22 24 26 27 29 30 31 32 34 35 37 39 41 42 44 47 50 39 35 20 10 3 8 11 7 11 11 12 12 4 8 22 12 23 17 5 4 3 3 6 4 6 8 9 5
19 21 23 25 26 28 29 30 31 33 33 35 38 43 43 42 44 48 47 34 33 9 6 7 7 5 9 8 4 8 11 6 10 15 8 17 11 6 4 4 1 5 4 6 2 11 8
21 22 24 26 27 28 30 31 32 34 33 38 36 43 47 45 44 51 38 36 17 3 2 7 4 4 6 3 3 2 9 9 4 6 4 5 4 4 7 9 15 7 5 4 6 7 7
21 23 25 27 28 29 31 32 33 33 33 36 36 42 45 47 47 49 31 16 6 4 6 5 4 6 2 6 5 4 5 6 4 3 7 2 7 16 21 19 4 3 4 5 4 3 5
23 24 26 27 29 30 31 32 33 34 34 37 38 43 44 47 51 29 27 5 7 10 12 14 20 14 20 5 4 4 8 6 5 6 5 2 13 5 6 7 9 12 9 6 3 3 1
24 25 26 28 30 29 30 31 33 34 36 37 39 46 46 43 39 13 19 1 20 4 7 5 5 4 5 10 7 6 8 4 4 7 8 8 6 9 12 6 9 10 17 8 7 3 3
23 25 27 29 29 30 30 32 34 36 37 39 39 49 49 49 9 27 7 12 26 3 6 6 3 3 3 3 3 5 8 6 4 11 7 6 7 6 5 8 10 14 8 8 7 5 5
24 26 27 29 30 31 34 35 35 36 41 40 40 49 45 28 16 8 17 26 21 3 5 4 3 3 3 1 3 3 0 1 6 5 6 6 4 5 8 10 10 6 8 12 8 7 1
25 26 28 29 32 33 34 33 35 40 42 40 43 50 46 22 16 14 30 26 2 3 8 8 7 13 14 9 6 4 2 4 1 3 2 5 1 3 5 2 10 6 6 6 5 3 4
25 27 29 29 31 34 34 34 39 39 40 39 42 46 31 16 6 28 30 5 4 4 10 9 11 13 7 8 8 10 6 3 2 2 5 2 3 1 2 4 3 3 7 3 1 2 4
26 28 28 31 32 33 34 35 35 38 37 39 42 38 22 10 12 29 9 4 1 12 6 9 10 9 6 10 4 7 11 0 6 4 1 4 3 3 1 2 6 6 6 5 7 5 3
26 27 29 30 34 32 32 34 34 36 37 39 40 36 13 17 36 16 4 4 5 7 9 8 11 6 4 5 4 9 5 8 6 11 4 4 0 4 6 4 2 4 3 3 6 1 3
26 27 28 31 29 31 31 32 33 34 36 36 29 15 10 32 23 6 5 7 5 4 7 5 5 5 5 7 6 6 7 6 6 8 5 6 4 4 4 2 7 3 2 3 0 5 6
26 25 28 27 29 29 29 30 32 33 35 30 11 4 12 33 9 5 4 3 4 6 9 3 4 4 4 4 4 5 6 2 5 6 4 1 2 4 1 5 2 0 2 3 2 1 1
26 27 25 26 27 27 27 29 32 32 33 26 6 4 22 30 5 2 4 9 8 5 5 4 1 3 3 4 3 3 3 2 6 6 4 4 3 3 1 3 4 2 2 3 3 2 1
24 24 24 26 27 27 27 29 31 29 29 16 5 3 9 12 4 7 6 5 3 8 6 6 4 2 2 4 3 2 1 2 4 6 1 4 2 3 0 1 5 5 8 4 2 3 0
23 23 24 25 26 27 27 27 27 26 24 10 3 5 4 4 1 3 10 4 8 6 4 4 4 4 5 4 3 3 2 2 3 3 10 3 2 3 3 0 2 3 5 8 3 2 3
22 23 25 25 26 26 25 25 25 23 22 5 4 3 2 5 4 8 6 5 6 10 4 5 4 10 11 4 3 3 2 5 4 8 4 4 1 2 4 3 2 3 4 3 3 2 3
23 23 24 25 25 25 23 22 22 21 17 6 2 3 1 4 4 6 6 5 13 13 3 6 6 15 8 6 4 2 1 1 2 5 3 4 2 2 3 3 3 3 5 4 4 1 3
22 22 24 24 24 24 22 20 19 18 14 4 2 3 0 5 5 4 6 8 9 13 4 3 8 6 6 10 13 6 3 2 1 2 1 2 2 2 4 4 4 3 3 4 3 3 6
22 22 24 24 23 21 19 18 16 15 11 6 3 2 1 4 2 4 5 4 12 10 4 5 5 3 4 10 7 1 2 3 1 3 2 2 1 2 3 3 3 3 5 2 6 3 4
20 22 23 22 21 20 18 17 16 14 12 7 4 2 1 3 2 4 12 5 8 5 3 3 4 3 7 5 5 6 4 2 2 0 2 4 2 1 1 1 2 2 4 5 4 3 4
20 21 21 20 19 18 18 17 16 14 12 5 7 5 1 2 2 2 3 2 5 4 7 4 4 6 5 3 4 3 3 3 4 7 1 2 3 2 2 2 2 3 2 4 2 2 4
20 20 20 20 18 17 16 15 15 12 10 6 4 9 1 1 2 5 3 4 3 3 3 4 10 7 3 3 3 3 3 1 4 6 4 3 2 2 2 1 2 4 11 6 4 3 3
19 19 19 19 17 16 15 15 14 12 9 5 3 8 3 0 1 3 4 2 4 3 4 6 5 4 3 5 3 2 2 2 2 3 4 3 2 2 2 3 2 7 4 5 2 3 3
18 18 18 17 16 14 14 14 12 11 9 5 2 7 3 1 2 2 1 1 1 3 3 3 2 3 2 1 2 1 2 2 0 3 4 3 1 1 2 1 2 4 4 3 1 2 3
Wind_Direction
18 14 10 7 2 1 360 358 356 354 353 352 350 348 345 343 340 338 337 331 325 321 313 299 278 264 202 244 251 226 288 265 195 192 192 178 186 196 195 192 183 235 237 226 227 187 209
15 11 6 3 1 359 357 357 355 353 352 351 349 347 344 342 340 337 336 331 325 323 318 293 236 210 194 249 240 263 310 250 198 181 196 182 203 183 173 192 193 187 201 229 227 210 223
11 7 2 1 359 358 357 356 353 351 351 350 349 347 343 340 338 336 334 332 328 323 319 306 207 192 232 249 238 269 300 243 195 181 181 199 202 174 157 202 205 176 222 220 210 204 230
7 4 2 359 359 357 356 354 352 351 350 350 348 345 341 338 336 335 335 330 327 316 306 283 185 189 249 256 278 261 255 221 190 183 193 198 203 165 170 179 68 168 166 232 185 179 224
5 3 359 358 358 356 354 352 351 350 349 350 349 347 342 337 333 332 333 331 321 298 284 182 169 199 261 300 246 267 212 178 158 189 188 172 173 199 151 154 170 213 200 214 252 195 178
4 1 359 359 356 355 353 351 349 348 348 347 345 343 342 339 336 334 333 337 317 305 149 192 266 215 257 262 275 231 193 177 145 130 127 162 180 178 186 188 218 200 213 203 184 204 189
3 360 359 357 354 353 351 350 347 342 343 344 343 342 341 337 336 335 338 341 14 354 13 226 261 273 288 302 280 219 171 130 100 118 186 214 203 211 211 213 217 120 177 179 202 194 171
2 0 358 355 353 352 349 346 343 341 339 340 340 341 338 337 335 337 354 74 114 277 295 236 258 267 256 264 306 261 169 155 151 180 130 84 239 226 192 196 225 230 232 207 273 271 63
1 359 355 353 352 352 348 347 345 344 339 337 338 339 336 336 329 337 340 231 342 305 268 280 228 226 262 169 209 245 163 154 162 164 187 182 211 195 182 171 202 228 232 224 219 183 257
360 356 354 353 350 347 345 343 343 342 340 337 336 337 338 339 352 331 337 329 334 252 291 282 289 293 105 166 220 207 183 152 198 198 161 230 240 142 173 207 178 233 188 179 191 157 231
357 355 354 349 347 345 344 343 344 346 344 340 336 335 339 345 313 318 321 322 326 229 317 350 43 360 345 265 311 20 1 94 179 178 134 229 192 166 201 218 182 221 178 186 179 197 181
357 355 350 349 347 349 351 351 350 346 342 339 333 330 337 342 324 338 334 331 264 244 252 353 38 354 358 356 4 343 39 37 78 167 213 239 348 170 192 105 180 143 89 63 47 120 220
355 351 351 352 353 352 350 349 347 346 346 342 330 333 339 337 311 338 335 348 343 246 343 15 331 334 342 338 358 -0 343 31 338 159 211 208 202 176 172 105 59 125 136 146 138 184 220
351 353 354 354 354 351 348 348 350 348 346 343 337 340 352 358 328 327 320 46 322 3 11 330 324 323 54 351 353 341 343 36 48 328 261 196 240 170 139 239 180 177 175 166 183 181 216
353 352 351 354 350 354 355 352 351 350 348 343 339 345 349 347 341 351 49 55 39 355 325 316 322 16 4 1 4 354 39 13 38 352 342 358 207 342 35 355 9 185 185 150 102 103 79
352 352 353 350 353 355 356 357 355 353 350 343 334 331 316 346 352 15 55 47 1 333 312 319 356 339 338 338 2 8 5 358 351 14 8 4 335 1 346 333 21 75 101 84 74 197 207
351 353 348 353 354 354 356 354 355 355 350 347 348 5 347 347 356 32 40 308 295 317 331 301 318 307 337 336 346 348 4 300 348 332 15 40 67 307 357 25 346 60 81 85 87 8 214
350 350 354 353 353 352 353 351 352 352 351 357 7 357 342 349 43 7 1 316 312 319 360 354 349 302 308 306 329 338 18 198 339 341 11 345 38 342 355 10 9 46 43 131 146 226 45
354 352 352 352 352 349 350 350 352 354 357 349 348 280 337 13 29 357 315 289 301 341 345 351 315 310 314 288 325 283 21 295 20 26 32 310 15 1 47 154 24 17 5 13 47 106 41
352 351 351 350 349 347 347 351 352 354 356 4 7 349 329 36 136 3 337 325 344 338 310 333 278 327 329 303 231 295 307 27 357 17 356 43 52 132 177 271 292 349 5 350 35 88 160
352 351 350 348 347 347 351 354 353 357 -0 18 22 350 24 319 348 345 319 304 337 1 344 332 326 342 315 278 281 234 49 347 5 356 39 86 129 39 303 299 259 237 274 317 351 220 109
352 350 349 349 348 348 351 356 356 357 9 62 27 348 350 291 317 342 340 337 340 339 284 318 337 332 337 350 351 1 42 179 260 341 45 4 300 69 303 290 313 283 248 207 234 204 54
350 349 347 348 349 350 353 357 355 6 24 30 330 256 288 307 337 2 358 332 324 333 301 324 341 325 352 349 328 319 284 275 201 145 37 19 116 73 279 300 332 25 275 225 192 179 147
348 348 348 349 352 354 359 356 1 4 7 352 312 235 319 289 39 330 325 311 332 321 271 312 344 37 287 311 289 89 64 68 57 284 208 148 189 115 243 2 28 278 350 133 114 41 2
345 347 348 351 352 355 356 358 359 359 0 6 13 335 303 289 287 338 339 321 317 299 328 305 316 255 315 1 21 13 351 29 17 278 265 215 211 137 132 210 283 156 2 17 7 13 331
344 343 345 348 349 351 354 356 356 356 357 13 32 353 295 316 12 326 304 326 345 321 336 313 325 324 26 53 50 41 11 313 335 346 309 342 121 109 43 95 354 34 285 330 266 35 345
339 340 343 345 346 347 347 349 353 352 352 17 18 359 339 287 337 4 351 334 340 322 289 314 341 340 38 18 43 27 326 310 5 345 343 5 13 47 33 30 352 316 313 305 78 259 22
337 338 341 343 343 346 349 350 348 350 346 329 347 3 1 77 277 352 7 357 339 357 339 304 10 349 351 33 57 298 42 281 6 309 344 13 348 23 49 49 18 344 335 76 264 330 32
337 338 340 343 347 350 348 352 2 356 352 340 17 350 343 235 236 300 3 171 150 239 293 295 239 288 317 358 3 22 338 7 211 334 349 27 14 295 116 42 31 6 47 29 61 71 17